Sioralik

KL  EN  DA
ASIAQ
Weather Now GREENLAND SURVEY
Updated [WGT/WGST] Temperature [°C] Wind [m/s] Air pressure [hPa] Relative humidity [%] Precipitation [mm]
Present Wind chill Speed Max
25.02 09:00-12,2-22,07,7 ⇙9,8101370n/a
25.02 08:00n/an/a6,7 ⇙8,8n/an/an/a
25.02 07:00-12,3-21,56,7 ⇙8,8101475n/a
25.02 06:00-12,1-19,74,6 ⇙6,7101473n/a
25.02 05:00-12,0-19,14,1 ⇘6,7101469n/a
25.02 04:00-12,0-19,14,1 ⇘5,7101466n/a
25.02 03:00-12,1-18,23,1 ⇓5,7101470n/a
25.02 02:00-12,1-19,24,1 ⇘7,2101466n/a
25.02 01:00-12,6-21,25,7 ⇒7,7101470n/a
25.02 00:00-12,2-21,16,2 ⇒9,3101473n/a
24.02 23:00-12,3-21,56,7 ⇒9,3101471n/a
24.02 22:00-12,1-21,67,2 ⇘8,8101372n/a
24.02 21:00-12,0-21,57,2 ⇘10,8101368n/a
24.02 20:00-11,6-20,97,2 ⇒9,8101264n/a
24.02 19:00-11,1-20,98,2 ⇒10,8101169n/a
24.02 18:00-10,7-21,310,3 ⇘13,4101073n/a
24.02 17:00-10,6-21,09,8 ⇒12,4100971n/a
24.02 16:00-10,2-20,710,3 ⇘13,4100878n/a
24.02 15:00-9,9-20,911,8 ⇘14,4100780n/a
24.02 14:00-9,5-20,111,3 ⇘15,4100675n/a
24.02 13:00-8,8-19,913,4 ⇘17,0100582n/a
24.02 12:00-9,2-20,312,9 ⇘15,4100484n/a
24.02 11:00-9,0-20,112,9 ⇘16,5100373n/a
24.02 10:00-9,0-20,413,9 ⇘18,0100287n/a
24.02 09:00-8,5-18,811,3 ⇘14,4100169n/a
Position: (65.01305556,-52.52861111)

[Back]